Time,TemperatureF,DewpointF,PressureIn,WindDirection,WindDirectionDegrees,WindSpeedMPH,WindSpeedGustMPH,Humidity,HourlyPrecipIn,Conditions,Clouds,dailyrainin,SoftwareType,DateUTC
2013-02-25 00:02:00,9.0,5.0,-100.00,NNE,30,0.0,0.0,83,0.00,,,0.00,,2013-02-25 06:02:00,
2013-02-25 00:11:00,7.0,3.0,-100.00,NNE,30,0.0,0.0,82,0.00,,,0.00,,2013-02-25 06:11:00,
2013-02-25 00:21:00,6.0,1.0,-100.00,NNE,30,0.0,1.0,81,0.00,,,0.00,,2013-02-25 06:21:00,
2013-02-25 00:31:00,6.0,1.0,-100.00,SSW,195,0.0,1.0,81,0.00,,,0.00,,2013-02-25 06:31:00,
2013-02-25 00:41:00,6.0,1.0,-100.00,SSW,195,0.0,0.0,81,0.00,,,0.00,,2013-02-25 06:41:00,
2013-02-25 00:51:00,7.0,3.0,-100.00,SSW,195,0.0,0.0,82,0.00,,,0.00,,2013-02-25 06:51:00,
2013-02-25 01:01:00,6.0,1.0,-100.00,SSW,195,0.0,0.0,82,0.00,,,0.00,,2013-02-25 07:01:00,
2013-02-25 01:11:00,6.0,1.0,-100.00,SSW,195,0.0,0.0,82,0.00,,,0.00,,2013-02-25 07:11:00,
2013-02-25 01:21:00,6.0,1.0,-100.00,NNE,15,1.0,1.0,81,0.00,,,0.00,,2013-02-25 07:21:00,
2013-02-25 01:31:00,6.0,1.0,-100.00,NNE,30,0.0,1.0,81,0.00,,,0.00,,2013-02-25 07:31:00,
2013-02-25 01:41:00,6.0,1.0,-100.00,NE,40,1.0,1.0,80,0.00,,,0.00,,2013-02-25 07:41:00,
2013-02-25 01:51:00,5.0,0.0,-100.00,NNE,30,0.0,2.0,80,0.00,,,0.00,,2013-02-25 07:51:00,
2013-02-25 02:01:00,5.0,1.0,-100.00,NE,40,1.0,1.0,81,0.00,,,0.00,,2013-02-25 08:01:00,
2013-02-25 02:11:00,5.0,0.0,-100.00,NNE,30,1.0,2.0,80,0.00,,,0.00,,2013-02-25 08:11:00,
2013-02-25 02:21:00,4.0,0.0,-100.00,NE,35,1.0,1.0,80,0.00,,,0.00,,2013-02-25 08:21:00,
2013-02-25 02:32:00,4.0,0.0,-100.00,NE,40,0.0,1.0,80,0.00,,,0.00,,2013-02-25 08:32:00,
2013-02-25 02:41:00,2.0,-2.0,-100.00,NE,50,1.0,1.0,79,0.00,,,0.00,,2013-02-25 08:41:00,
2013-02-25 02:52:00,4.0,0.0,-100.00,NNE,30,1.0,2.0,80,0.00,,,0.00,,2013-02-25 08:52:00,
2013-02-25 03:01:00,4.0,0.0,-100.00,NE,50,1.0,1.0,79,0.00,,,0.00,,2013-02-25 09:01:00,
2013-02-25 03:12:00,5.0,0.0,-100.00,East,85,0.0,1.0,79,0.00,,,0.00,,2013-02-25 09:12:00,
2013-02-25 03:21:00,4.0,0.0,-100.00,NE,35,1.0,2.0,78,0.00,,,0.00,,2013-02-25 09:21:00,
2013-02-25 03:32:00,6.0,1.0,-100.00,NE,50,1.0,2.0,79,0.00,,,0.00,,2013-02-25 09:32:00,
2013-02-25 03:41:00,7.0,1.0,-100.00,ENE,65,0.0,2.0,79,0.00,,,0.00,,2013-02-25 09:41:00,
2013-02-25 03:51:00,8.0,3.0,-100.00,NE,50,1.0,1.0,79,0.00,,,0.00,,2013-02-25 09:51:00,
2013-02-25 04:01:00,8.0,3.0,-100.00,NNW,330,0.0,1.0,79,0.00,,,0.00,,2013-02-25 10:01:00,
2013-02-25 04:11:00,9.0,3.0,-100.00,ENE,70,0.0,1.0,79,0.00,,,0.00,,2013-02-25 10:11:00,
2013-02-25 04:21:00,9.0,5.0,-100.00,North,5,0.0,2.0,80,0.00,,,0.00,,2013-02-25 10:21:00,
2013-02-25 04:32:00,9.0,5.0,-100.00,North,5,1.0,1.0,80,0.00,,,0.00,,2013-02-25 10:32:00,
2013-02-25 04:41:00,10.0,5.0,-100.00,North,0,1.0,3.0,80,0.00,,,0.00,,2013-02-25 10:41:00,
2013-02-25 04:52:00,10.0,5.0,-100.00,NNW,345,1.0,1.0,80,0.00,,,0.00,,2013-02-25 10:52:00,
2013-02-25 05:01:00,10.0,5.0,-100.00,North,0,0.0,1.0,80,0.00,,,0.00,,2013-02-25 11:01:00,
2013-02-25 05:11:00,11.0,7.0,-100.00,NNE,25,2.0,4.0,81,0.00,,,0.00,,2013-02-25 11:11:00,
2013-02-25 05:21:00,12.0,7.0,-100.00,NNE,30,2.0,4.0,81,0.00,,,0.00,,2013-02-25 11:21:00,
2013-02-25 05:32:00,13.0,9.0,-100.00,South,180,2.0,3.0,82,0.00,,,0.00,,2013-02-25 11:32:00,
2013-02-25 05:42:00,13.0,9.0,-100.00,South,185,1.0,3.0,82,0.00,,,0.00,,2013-02-25 11:42:00,
2013-02-25 05:52:00,14.0,10.0,-100.00,SW,225,1.0,1.0,83,0.00,,,0.00,,2013-02-25 11:52:00,
2013-02-25 06:02:00,14.0,10.0,-100.00,East,85,1.0,1.0,83,0.00,,,0.00,,2013-02-25 12:02:00,
2013-02-25 06:11:00,15.0,10.0,-100.00,SSW,210,1.0,2.0,83,0.00,,,0.00,,2013-02-25 12:11:00,
2013-02-25 06:21:00,15.0,10.0,-100.00,WNW,290,0.0,1.0,83,0.00,,,0.00,,2013-02-25 12:21:00,
2013-02-25 06:32:00,15.0,10.0,-100.00,NE,55,0.0,0.0,83,0.00,,,0.00,,2013-02-25 12:32:00,
2013-02-25 06:42:00,15.0,10.0,-100.00,SSW,210,0.0,1.0,83,0.00,,,0.00,,2013-02-25 12:42:00,
2013-02-25 06:53:00,15.0,10.0,-100.00,SW,230,1.0,2.0,83,0.00,,,0.00,,2013-02-25 12:53:00,
2013-02-25 07:02:00,16.0,12.0,-100.00,SE,125,1.0,2.0,83,0.00,,,0.00,,2013-02-25 13:02:00,
2013-02-25 07:12:00,16.0,12.0,-100.00,South,185,1.0,2.0,83,0.00,,,0.00,,2013-02-25 13:12:00,
2013-02-25 07:22:00,16.0,12.0,-100.00,SW,215,0.0,4.0,83,0.00,,,0.00,,2013-02-25 13:22:00,
2013-02-25 07:32:00,17.0,12.0,-100.00,South,190,2.0,3.0,84,0.00,,,0.00,,2013-02-25 13:32:00,
2013-02-25 07:42:00,18.0,14.0,-100.00,SW,235,0.0,3.0,83,0.00,,,0.00,,2013-02-25 13:42:00,
2013-02-25 07:52:00,18.0,14.0,-100.00,SSW,200,0.0,1.0,83,0.00,,,0.00,,2013-02-25 13:52:00,
2013-02-25 08:03:00,18.0,14.0,-100.00,NW,325,0.0,1.0,82,0.00,,,0.00,,2013-02-25 14:03:00,
2013-02-25 08:17:00,18.0,14.0,-100.00,NW,315,1.0,2.0,81,0.00,,,0.00,,2013-02-25 14:17:00,
2013-02-25 08:32:00,19.0,14.0,-100.00,North,355,1.0,1.0,80,0.00,,,0.00,,2013-02-25 14:32:00,
2013-02-25 08:42:00,19.0,14.0,-100.00,NNE,25,1.0,3.0,79,0.00,,,0.00,,2013-02-25 14:42:00,
2013-02-25 08:52:00,20.0,14.0,-100.00,NNE,15,1.0,4.0,79,0.00,,,0.00,,2013-02-25 14:52:00,
2013-02-25 09:02:00,20.0,14.0,-100.00,NNE,15,1.0,2.0,78,0.00,,,0.00,,2013-02-25 15:02:00,
2013-02-25 09:11:00,21.0,16.0,-100.00,West,280,0.0,2.0,77,0.00,,,0.00,,2013-02-25 15:11:00,
2013-02-25 09:21:00,21.0,16.0,-100.00,SW,235,0.0,3.0,77,0.00,,,0.00,,2013-02-25 15:21:00,
2013-02-25 09:32:00,22.0,16.0,-100.00,WNW,285,1.0,2.0,75,0.00,,,0.00,,2013-02-25 15:32:00,
2013-02-25 09:41:00,23.0,16.0,-100.00,NW,305,0.0,2.0,76,0.00,,,0.00,,2013-02-25 15:41:00,
2013-02-25 09:51:00,24.0,16.0,-100.00,North,355,1.0,2.0,73,0.00,,,0.00,,2013-02-25 15:51:00,
2013-02-25 10:02:00,24.0,16.0,-100.00,North,0,0.0,2.0,71,0.00,,,0.00,,2013-02-25 16:02:00,
2013-02-25 10:11:00,25.0,16.0,-100.00,WNW,300,1.0,3.0,69,0.00,,,0.00,,2013-02-25 16:11:00,
2013-02-25 10:21:00,26.0,18.0,-100.00,NW,310,0.0,2.0,69,0.00,,,0.00,,2013-02-25 16:21:00,
2013-02-25 10:32:00,24.0,18.0,-100.00,NNW,345,2.0,5.0,72,0.00,,,0.00,,2013-02-25 16:32:00,
2013-02-25 10:42:00,24.0,18.0,-100.00,North,355,1.0,6.0,76,0.00,,,0.00,,2013-02-25 16:42:00,
2013-02-25 10:51:00,25.0,18.0,-100.00,NW,315,1.0,5.0,73,0.00,,,0.00,,2013-02-25 16:51:00,
2013-02-25 11:01:00,25.0,18.0,-100.00,NE,50,0.0,4.0,72,0.00,,,0.00,,2013-02-25 17:01:00,
2013-02-25 11:11:00,27.0,19.0,-100.00,WNW,295,1.0,2.0,71,0.00,,,0.00,,2013-02-25 17:11:00,
2013-02-25 11:21:00,26.0,18.0,-100.00,NE,45,2.0,3.0,70,0.00,,,0.00,,2013-02-25 17:21:00,
2013-02-25 11:31:00,27.0,19.0,-100.00,NE,55,1.0,4.0,71,0.00,,,0.00,,2013-02-25 17:31:00,
2013-02-25 11:41:00,27.0,19.0,-100.00,NE,55,1.0,4.0,71,0.00,,,0.00,,2013-02-25 17:41:00,
2013-02-25 11:52:00,27.0,19.0,-100.00,NE,55,1.0,4.0,71,0.00,,,0.00,,2013-02-25 17:52:00,
2013-02-25 12:01:00,27.0,19.0,-100.00,NE,55,1.0,4.0,71,0.00,,,0.00,,2013-02-25 18:01:00,
2013-02-25 12:12:00,27.0,19.0,-100.00,NE,55,1.0,4.0,71,0.00,,,0.00,,2013-02-25 18:12:00,
2013-02-25 13:21:00,30.0,19.0,-100.00,South,190,4.0,7.0,64,0.00,,,0.00,,2013-02-25 19:21:00,
2013-02-25 13:32:00,31.0,19.0,-100.00,SW,215,4.0,7.0,63,0.00,,,0.00,,2013-02-25 19:32:00,
2013-02-25 13:42:00,31.0,19.0,-100.00,South,180,4.0,7.0,62,0.00,,,0.00,,2013-02-25 19:42:00,
2013-02-25 13:52:00,33.0,21.0,-100.00,SSW,210,1.0,6.0,59,0.00,,,0.00,,2013-02-25 19:52:00,
2013-02-25 14:01:00,32.0,19.0,-100.00,South,185,3.0,6.0,61,0.00,,,0.00,,2013-02-25 20:01:00,
2013-02-25 14:11:00,33.0,19.0,-100.00,West,280,2.0,6.0,58,0.00,,,0.00,,2013-02-25 20:11:00,
2013-02-25 14:21:00,32.0,19.0,-100.00,East,80,1.0,7.0,60,0.00,,,0.00,,2013-02-25 20:21:00,
2013-02-25 14:31:00,31.0,19.0,-100.00,NW,305,1.0,4.0,60,0.00,,,0.00,,2013-02-25 20:31:00,
2013-02-25 14:41:00,32.0,19.0,-100.00,ENE,60,2.0,4.0,60,0.00,,,0.00,,2013-02-25 20:41:00,
2013-02-25 14:52:00,32.0,19.0,-100.00,North,0,2.0,8.0,61,0.00,,,0.00,,2013-02-25 20:52:00,
2013-02-25 15:01:00,32.0,19.0,-100.00,North,10,2.0,5.0,61,0.00,,,0.00,,2013-02-25 21:01:00,
2013-02-25 15:11:00,33.0,19.0,-100.00,NNE,15,2.0,4.0,57,0.00,,,0.00,,2013-02-25 21:11:00,
2013-02-25 15:21:00,32.0,19.0,-100.00,NE,55,1.0,6.0,61,0.00,,,0.00,,2013-02-25 21:21:00,
2013-02-25 15:31:00,33.0,19.0,-100.00,NE,50,1.0,4.0,58,0.00,,,0.00,,2013-02-25 21:31:00,
2013-02-25 15:42:00,33.0,21.0,-100.00,WNW,300,1.0,5.0,59,0.00,,,0.00,,2013-02-25 21:42:00,
2013-02-25 15:51:00,32.0,19.0,-100.00,NNE,25,2.0,4.0,60,0.00,,,0.00,,2013-02-25 21:51:00,
2013-02-25 16:01:00,32.0,21.0,-100.00,North,5,1.0,5.0,62,0.00,,,0.00,,2013-02-25 22:01:00,
2013-02-25 16:11:00,32.0,19.0,-100.00,WNW,300,2.0,4.0,61,0.00,,,0.00,,2013-02-25 22:11:00,
2013-02-25 16:21:00,32.0,21.0,-100.00,NW,320,1.0,6.0,63,0.00,,,0.00,,2013-02-25 22:21:00,
2013-02-25 16:32:00,31.0,21.0,-100.00,West,280,4.0,5.0,63,0.00,,,0.00,,2013-02-25 22:32:00,
2013-02-25 16:42:00,31.0,21.0,-100.00,WNW,300,1.0,4.0,63,0.00,,,0.00,,2013-02-25 22:42:00,
2013-02-25 16:51:00,32.0,21.0,-100.00,NW,315,1.0,4.0,62,0.00,,,0.00,,2013-02-25 22:51:00,
2013-02-25 17:01:00,29.0,21.0,-100.00,NNE,15,2.0,4.0,69,0.00,,,0.00,,2013-02-25 23:01:00,
2013-02-25 17:11:00,29.0,21.0,-100.00,NNE,30,2.0,4.0,70,0.00,,,0.00,,2013-02-25 23:11:00,
2013-02-25 17:22:00,29.0,21.0,-100.00,North,5,2.0,6.0,71,0.00,,,0.00,,2013-02-25 23:22:00,
2013-02-25 17:31:00,28.0,19.0,-100.00,NNE,25,4.0,4.0,72,0.00,,,0.00,,2013-02-25 23:31:00,
2013-02-25 17:41:00,27.0,19.0,-100.00,NNE,20,2.0,4.0,73,0.00,,,0.00,,2013-02-25 23:41:00,
2013-02-25 17:52:00,27.0,19.0,-100.00,North,0,2.0,4.0,74,0.00,,,0.00,,2013-02-25 23:52:00,
2013-02-25 18:01:00,27.0,19.0,-100.00,North,5,2.0,4.0,75,0.00,,,0.00,,2013-02-26 00:01:00,
2013-02-25 18:11:00,26.0,19.0,-100.00,North,10,2.0,4.0,76,0.00,,,0.00,,2013-02-26 00:11:00,
2013-02-25 18:21:00,26.0,19.0,-100.00,North,0,2.0,4.0,77,0.00,,,0.00,,2013-02-26 00:21:00,
2013-02-25 18:32:00,24.0,19.0,-100.00,NNE,15,2.0,4.0,79,0.00,,,0.00,,2013-02-26 00:32:00,
2013-02-25 18:41:00,24.0,19.0,-100.00,NNE,25,2.0,3.0,80,0.00,,,0.00,,2013-02-26 00:41:00,
2013-02-25 18:51:00,23.0,18.0,-100.00,NE,35,1.0,3.0,80,0.00,,,0.00,,2013-02-26 00:51:00,
2013-02-25 19:02:00,21.0,16.0,-100.00,NNE,25,1.0,1.0,80,0.00,,,0.00,,2013-02-26 01:02:00,
2013-02-25 19:11:00,20.0,16.0,-100.00,North,0,0.0,1.0,81,0.00,,,0.00,,2013-02-26 01:11:00,
2013-02-25 19:21:00,19.0,16.0,-100.00,NE,35,0.0,1.0,82,0.00,,,0.00,,2013-02-26 01:21:00,
2013-02-25 19:31:00,16.0,12.0,-100.00,South,180,1.0,1.0,82,0.00,,,0.00,,2013-02-26 01:31:00,
2013-02-25 19:41:00,16.0,12.0,-100.00,South,175,0.0,1.0,84,0.00,,,0.00,,2013-02-26 01:41:00,
2013-02-25 19:51:00,17.0,14.0,-100.00,NNE,15,1.0,1.0,84,0.00,,,0.00,,2013-02-26 01:51:00,
2013-02-25 20:01:00,17.0,12.0,-100.00,NE,40,0.0,1.0,84,0.00,,,0.00,,2013-02-26 02:01:00,
2013-02-25 20:11:00,15.0,12.0,-100.00,South,190,1.0,1.0,84,0.00,,,0.00,,2013-02-26 02:11:00,
2013-02-25 20:21:00,15.0,10.0,-100.00,South,190,0.0,1.0,84,0.00,,,0.00,,2013-02-26 02:21:00,
2013-02-25 20:32:00,14.0,10.0,-100.00,South,190,0.0,0.0,84,0.00,,,0.00,,2013-02-26 02:32:00,
2013-02-25 20:41:00,14.0,10.0,-100.00,NNE,25,0.0,1.0,85,0.00,,,0.00,,2013-02-26 02:41:00,
2013-02-25 20:52:00,15.0,10.0,-100.00,NNE,20,1.0,1.0,85,0.00,,,0.00,,2013-02-26 02:52:00,
2013-02-25 21:02:00,14.0,10.0,-100.00,NNE,25,2.0,2.0,86,0.00,,,0.00,,2013-02-26 03:02:00,
2013-02-25 21:11:00,14.0,10.0,-100.00,NNE,25,1.0,2.0,87,0.00,,,0.00,,2013-02-26 03:11:00,
2013-02-25 21:21:00,13.0,9.0,-100.00,North,10,1.0,1.0,87,0.00,,,0.00,,2013-02-26 03:21:00,
2013-02-25 21:32:00,10.0,7.0,-100.00,NE,40,1.0,1.0,85,0.00,,,0.00,,2013-02-26 03:32:00,
2013-02-25 21:41:00,10.0,7.0,-100.00,SE,145,0.0,0.0,85,0.00,,,0.00,,2013-02-26 03:41:00,
2013-02-25 21:52:00,11.0,7.0,-100.00,NNE,15,1.0,1.0,85,0.00,,,0.00,,2013-02-26 03:52:00,
2013-02-25 22:01:00,9.0,5.0,-100.00,SSE,160,0.0,1.0,84,0.00,,,0.00,,2013-02-26 04:01:00,
2013-02-25 22:11:00,9.0,5.0,-100.00,North,10,0.0,1.0,85,0.00,,,0.00,,2013-02-26 04:11:00,
2013-02-25 22:21:00,10.0,7.0,-100.00,NNE,25,1.0,1.0,84,0.00,,,0.00,,2013-02-26 04:21:00,
2013-02-25 22:32:00,10.0,7.0,-100.00,NE,35,1.0,2.0,85,0.00,,,0.00,,2013-02-26 04:32:00,
2013-02-25 22:42:00,10.0,7.0,-100.00,NNE,25,0.0,1.0,86,0.00,,,0.00,,2013-02-26 04:42:00,
2013-02-25 22:51:00,9.0,7.0,-100.00,NNE,25,1.0,1.0,85,0.00,,,0.00,,2013-02-26 04:51:00,
2013-02-25 23:01:00,10.0,7.0,-100.00,NNE,20,0.0,1.0,86,0.00,,,0.00,,2013-02-26 05:01:00,
2013-02-25 23:11:00,10.0,7.0,-100.00,NE,40,0.0,1.0,86,0.00,,,0.00,,2013-02-26 05:11:00,
2013-02-25 23:21:00,10.0,7.0,-100.00,North,350,0.0,1.0,85,0.00,,,0.00,,2013-02-26 05:21:00,
2013-02-25 23:31:00,9.0,7.0,-100.00,NE,40,1.0,1.0,85,0.00,,,0.00,,2013-02-26 05:31:00,
2013-02-25 23:42:00,9.0,7.0,-100.00,North,0,0.0,2.0,85,0.00,,,0.00,,2013-02-26 05:42:00,
2013-02-25 23:52:00,9.0,5.0,-100.00,NNE,15,1.0,2.0,84,0.00,,,0.00,,2013-02-26 05:52:00,